Latest Weather Observations for Goulburn Airport

IDN60801

Issued at 9:32 am EDT Thursday 2 April 2015 (issued every 30 minutes, with the page automatically refreshed every 10 minutes)

About weather observations | Map of weather stations | Latest weather observations for NSW | Other Formats
Station Details ID: 070330 Name: GOULBURN AIRPORT AWS Lat: -34.81 Lon: 149.73 Height: 640.0 m
Data from the previous 72 hours. | See also: Recent months at Goulburn Airport
Date/Time
EDT
Temp
°C
App
Temp
°C
Dew
Point
Rel
Hum
%
Delta-T
°C
Wind Press
QNH
hPa
Press
MSL
hPa
Rain
since 9 am
mm
Dir
 
Spd
km/h
Gust
km/h
Spd
kts
Gust
kts
02/09:30am 20.8 16.5 12.2 58 5.0 NW 26 35 14 19 1020.1 1019.3 0.0
02/09:00am 19.1 16.1 11.9 63 4.1 NNW 19 26 10 14 1020.0 1019.1 0.0
02/08:30am 18.0 15.2 11.3 65 3.8 NW 17 24 9 13 1019.7 1018.9 0.0
02/08:00am 17.8 14.4 11.4 66 3.6 NW 20 26 11 14 1019.2 1018.4 0.0
02/07:30am 17.0 13.8 11.1 68 3.3 NW 19 24 10 13 1019.0 1018.2 0.0
02/07:00am 16.3 13.9 11.5 73 2.7 NW 15 20 8 11 1018.8 1018.0 0.0
02/06:30am 14.8 13.4 10.8 77 2.2 NW 9 11 5 6 1018.6 1017.7 0.0
02/06:00am 14.2 12.6 10.2 77 2.1 NW 9 11 5 6 1018.6 1017.7 0.0
02/05:30am 15.1 14.2 11.3 78 2.1 NW 7 11 4 6 1018.5 1017.6 0.0
02/05:00am 14.4 12.6 11.0 80 1.9 NW 11 13 6 7 1018.5 1017.6 0.0
02/04:30am 14.2 12.1 11.0 81 1.7 NNW 13 13 7 7 1018.6 1017.7 0.0
02/04:00am 13.7 11.9 10.7 82 1.6 NNW 11 15 6 8 1018.7 1017.9 0.0
02/03:30am 13.7 11.6 11.0 84 1.5 NNW 13 13 7 7 1019.0 1018.2 0.0
02/03:00am 14.1 12.9 11.6 85 1.4 NNW 9 11 5 6 1019.2 1018.4 0.0
02/02:30am 13.9 12.6 11.2 84 1.5 NNW 9 13 5 7 1019.7 1018.9 0.0
02/02:00am 15.3 13.6 12.4 83 1.6 NNW 13 15 7 8 1020.0 1019.1 0.0
02/01:30am 15.6 13.7 12.9 84 1.5 N 15 17 8 9 1020.2 1019.4 0.0
02/01:00am 15.7 14.2 13.0 84 1.5 N 13 15 7 8 1020.4 1019.6 0.0
02/12:30am 15.6 14.0 12.9 84 1.5 NNW 13 15 7 8 1020.7 1019.9 0.0
02/12:00am 16.0 14.6 13.3 84 1.6 N 13 17 7 9 1021.0 1020.2 0.0
 
Date/Time
EDT
Temp
°C
App
Temp
°C
Dew
Point
Rel
Hum
%
Delta-T
°C
Wind Press
QNH
hPa
Press
MSL
hPa
Rain
since 9 am
mm
Dir
 
Spd
km/h
Gust
km/h
Spd
kts
Gust
kts
01/11:30pm 16.3 15.0 13.6 84 1.6 N 13 17 7 9 1021.2 1020.4 0.0
01/11:00pm 16.2 16.1 13.3 83 1.7 N 6 9 3 5 1021.2 1020.4 0.0
01/10:30pm 16.2 17.2 13.3 83 1.7 CALM 0 0 0 0 1021.4 1020.7 0.0
01/10:00pm 16.3 16.0 12.8 80 2.0 N 6 9 3 5 1021.3 1020.5 0.0
01/09:30pm 17.2 15.7 13.1 77 2.4 NE 13 15 7 8 1021.1 1020.3 0.0
01/09:00pm 18.1 16.0 13.6 75 2.6 NE 17 19 9 10 1020.9 1020.1 0.0
01/08:30pm 17.6 16.2 13.5 77 2.4 NE 13 19 7 10 1020.8 1020.0 0.0
01/08:00pm 17.7 16.9 13.0 74 2.7 NNE 9 11 5 6 1020.6 1019.8 0.0
01/07:30pm 18.0 17.1 12.7 71 3.1 NNE 9 11 5 6 1020.4 1019.6 0.0
01/07:00pm 19.9 18.4 13.1 65 4.0 NE 13 17 7 9 1020.2 1019.4 0.0
01/06:30pm 21.3 19.5 13.2 60 4.8 NE 15 19 8 10 1020.1 1019.3 0.0
01/06:00pm 22.0 19.5 13.4 58 5.1 NE 19 24 10 13 1020.1 1019.3 0.0
01/05:30pm 22.4 19.5 12.9 55 5.6 NE 20 28 11 15 1019.9 1019.0 0.0
01/05:00pm 23.0 20.1 12.9 53 6.0 NE 20 26 11 14 1020.0 1019.1 0.0
01/04:30pm 23.3 20.9 12.6 51 6.3 NE 17 22 9 12 1020.1 1019.3 0.0
01/04:00pm 24.5 23.1 13.4 50 6.6 NE 13 19 7 10 1020.3 1019.5 0.0
01/03:30pm 24.1 21.7 12.7 49 6.7 NE 17 24 9 13 1020.5 1019.7 0.0
01/03:00pm 23.0 20.2 12.6 52 6.1 NE 19 24 10 13 1020.9 1020.1 0.0
01/02:30pm 22.8 21.8 12.4 52 6.1 ENE 9 19 5 10 1021.4 1020.7 0.0
01/02:00pm 22.4 19.4 12.1 52 6.0 NE 19 30 10 16 1021.9 1021.1 0.0
01/01:30pm 23.5 20.6 12.2 49 6.6 NE 19 30 10 16 1022.3 1021.5 0.0
01/01:00pm 23.0 20.5 12.3 51 6.2 NNE 17 28 9 15 1022.9 1022.2 0.0
01/12:30pm 22.5 19.7 12.7 54 5.8 NE 19 28 10 15 1023.7 1022.9 0.0
01/12:00pm 21.8 19.2 12.1 54 5.6 N 17 24 9 13 1024.3 1023.6 0.0
01/11:30am 21.1 19.0 12.5 58 5.0 N 15 30 8 16 1024.6 1023.9 0.0
01/11:00am 20.0 17.0 12.5 62 4.3 NNE 20 28 11 15 1025.1 1024.3 0.0
01/10:48am 19.2 16.2 12.5 65 3.9 N 20 26 11 14 1025.4 1023.5 0.0
01/10:30am 19.3 16.7 13.7 70 3.3 NNE 20 24 11 13 1025.7 1023.8 0.0
01/10:00am 17.6 16.2 13.5 77 2.4 NE 13 20 7 11 1026.1 1024.2 0.0
01/09:30am 16.0 14.7 13.7 86 1.3 NE 13 17 7 9 1026.1 1024.2 0.0
01/09:00am 15.1 15.3 14.3 95 0.5 ENE 6 11 3 6 1025.9 1024.0 0.0
01/08:30am 14.1 15.3 13.9 99 0.1 CALM 0 6 0 3 1025.9 1024.0 0.0
01/08:00am 13.0 12.7 12.7 98 0.2 ESE 6 9 3 5 1025.8 1023.9 0.0
01/07:30am 12.6 11.6 12.4 99 0.1 ESE 9 11 5 6 1025.5 1023.6 0.0
01/07:00am 12.3 11.6 12.1 99 0.1 SSE 7 9 4 5 1025.4 1023.5 0.0
01/06:46am 12.1 11.6 11.9 99 0.1 SSW 6 7 3 4 1025.5 1023.6 0.0
01/06:30am 11.7 10.8 11.5 99 0.1 S 7 9 4 5 1025.3 1023.4 0.0
01/06:00am 10.1 8.4 9.8 98 0.2 SW 9 11 5 6 1025.4 1023.5 0.0
01/05:30am 10.1 9.7 9.8 98 0.2 SSE 2 6 1 3 1025.5 1023.6 0.0
01/05:17am 10.0 8.3 9.7 98 0.2 S 9 15 5 8 1025.4 1023.5 0.0
01/05:00am 10.9 9.1 10.7 99 0.1 SSW 11 13 6 7 1025.5 1023.6 0.0
01/04:30am 10.6 10.0 10.4 99 0.1 SSW 4 7 2 4 1025.6 1023.7 0.0
01/04:00am 9.3 8.3 9.0 98 0.2 S 4 7 2 4 1025.7 1023.8 0.0
01/03:30am 8.9 7.4 8.6 98 0.2 S 6 7 3 4 1026.3 1024.5 0.0
01/03:00am 7.9 5.9 7.3 96 0.3 SSE 7 9 4 5 1026.4 1024.6 0.0
01/02:56am 8.0 6.2 7.2 95 0.4 S 6 9 3 5 1026.3 1024.5 0.0
01/02:30am 8.2 6.3 7.4 95 0.4 SSW 7 9 4 5 1026.7 1024.8 0.0
01/02:00am 9.7 8.4 9.2 97 0.3 S 6 9 3 5 1026.8 1024.9 0.0
01/01:30am 9.2 7.5 8.4 95 0.4 SSW 7 9 4 5 1027.0 1025.1 0.0
01/01:00am 10.1 8.6 9.3 95 0.4 ESE 7 7 4 4 1027.2 1025.3 0.0
01/12:56am 10.6 9.3 9.8 95 0.4 SE 7 7 4 4 1027.2 1025.3 0.0
01/12:40am 10.7 10.7 9.9 95 0.4 CALM 0 0 0 0 1027.2 1025.3 0.0
01/12:30am 10.0 9.7 8.8 92 0.6 CALM 0 0 0 0 1027.2 1025.3 0.0
01/12:00am 12.5 11.7 11.2 92 0.7 NE 6 9 3 5 1027.4 1025.5 0.0
 
Date/Time
EDT
Temp
°C
App
Temp
°C
Dew
Point
Rel
Hum
%
Delta-T
°C
Wind Press
QNH
hPa
Press
MSL
hPa
Rain
since 9 am
mm
Dir
 
Spd
km/h
Gust
km/h
Spd
kts
Gust
kts
31/11:30pm 12.8 11.6 11.7 93 0.6 ENE 9 13 5 7 1027.5 1025.7 0.0
31/11:00pm 13.0 12.1 11.4 90 0.9 ENE 7 9 4 5 1027.8 1026.0 0.0
31/10:30pm 13.7 12.5 12.8 94 0.5 E 11 15 6 8 1027.5 1025.7 0.0
31/10:00pm 12.6 11.4 11.5 93 0.6 E 9 13 5 7 1027.2 1025.3 0.0
31/09:30pm 12.7 11.1 11.4 92 0.7 SE 11 15 6 8 1027.5 1025.7 0.0
31/09:00pm 13.0 11.3 11.1 88 1.0 SE 11 13 6 7 1027.4 1025.5 0.0
31/08:30pm 13.5 12.0 10.7 83 1.5 SE 9 13 5 7 1027.2 1025.3 0.0
31/08:00pm 15.1 13.9 11.5 79 2.0 E 9 15 5 8 1026.8 1024.9 0.0
31/07:30pm 16.1 13.4 11.7 75 2.5 E 17 24 9 13 1026.6 1024.7 0.0
31/07:00pm 16.9 13.7 11.4 70 3.1 ENE 19 24 10 13 1026.0 1024.1 0.0
31/06:30pm 18.1 14.8 11.7 66 3.6 ENE 20 28 11 15 1025.7 1023.8 0.0
31/06:00pm 19.1 15.7 11.2 60 4.4 E 20 28 11 15 1025.7 1023.8 0.0
31/05:30pm 19.9 16.0 10.9 56 5.1 E 22 28 12 15 1025.6 1023.7 0.0
31/05:00pm 20.1 16.0 11.6 58 4.8 E 24 30 13 16 1025.6 1023.7 0.0
31/04:30pm 21.3 17.7 9.9 48 6.3 E 19 26 10 14 1025.7 1023.8 0.0
31/04:00pm 21.3 17.3 9.2 46 6.6 E 20 32 11 17 1025.9 1024.0 0.0
31/03:30pm 21.2 17.1 8.8 45 6.8 E 20 30 11 16 1026.2 1024.4 0.0
31/03:00pm 21.5 17.4 8.7 44 6.9 E 20 28 11 15 1026.4 1024.6 0.0
31/02:30pm 20.3 17.0 9.5 50 5.9 E 17 24 9 13 1026.8 1024.9 0.0
31/02:00pm 19.5 16.2 11.0 58 4.8 E 19 26 10 14 1027.3 1025.4 0.0
31/01:30pm 19.1 16.0 11.7 62 4.2 ESE 19 22 10 12 1027.6 1025.8 0.0
31/01:00pm 19.2 16.5 11.7 62 4.2 ESE 17 26 9 14 1027.9 1026.1 0.0
31/12:30pm 19.0 16.5 11.1 60 4.4 E 15 20 8 11 1028.5 1026.6 0.0
31/12:00pm 18.6 15.5 11.7 64 3.9 ESE 19 24 10 13 1028.7 1026.8 0.0
31/11:30am 17.4 14.8 11.9 70 3.1 E 17 24 9 13 1029.2 1027.4 0.0
31/11:15am 16.8 14.8 11.5 71 3.0 ESE 13 20 7 11 1029.3 1027.5 0.0
31/11:00am 17.2 15.6 12.7 75 2.6 SE 13 20 7 11 1029.4 1027.6 0.0
31/10:30am 15.0 13.7 12.5 85 1.4 ESE 11 17 6 9 1029.5 1027.7 0.0
31/10:00am 13.8 13.6 13.0 95 0.5 ESE 6 9 3 5 1029.3 1027.5 0.0
31/09:30am 13.1 11.5 12.8 98 0.2 SE 13 17 7 9 1029.1 1027.3 0.0
31/09:00am 12.3 10.1 12.1 99 0.1 SSE 15 19 8 10 1028.7 1026.8 0.4
31/08:30am 11.8 9.5 11.6 99 0.1 SSW 15 19 8 10 1028.3 1026.4 0.4
31/08:00am 11.6 9.2 11.4 99 0.1 SSW 15 17 8 9 1027.7 1025.9 0.4
31/07:30am 11.1 8.9 10.8 98 0.2 SW 13 15 7 8 1027.4 1025.5 0.4
31/07:00am 12.3 11.6 12.1 99 0.1 SSE 7 9 4 5 1027.0 1025.1 0.4
31/06:30am 11.6 10.7 11.4 99 0.1 NE 7 9 4 5 1026.7 1024.8 0.4
31/06:00am 10.4 10.5 10.1 98 0.2 CALM 0 0 0 0 1026.7 1024.8 0.4
31/05:30am 9.2 8.2 8.7 97 0.3 SSE 4 9 2 5 1026.7 1024.8 0.4
31/05:05am 7.9 6.4 7.0 94 0.4 NNE 4 6 2 3 1026.6 1024.7 0.4
31/05:00am 7.8 5.9 6.7 93 0.5 NE 6 7 3 4 1026.6 1024.7 0.4
31/04:30am 8.6 7.0 7.8 95 0.4 SSE 6 7 3 4 1026.4 1024.6 0.4
31/04:00am 8.6 6.7 7.5 93 0.5 SSW 7 9 4 5 1026.7 1024.8 0.4
31/03:30am 9.0 7.2 7.9 93 0.5 S 7 11 4 6 1026.9 1025.0 0.4
31/03:00am 9.0 7.3 7.6 91 0.7 SSE 6 11 3 6 1027.0 1025.1 0.4
31/02:30am 10.1 8.7 8.7 91 0.7 SW 6 7 3 4 1027.1 1025.2 0.4
31/02:00am 11.0 9.1 9.1 88 1.0 SSW 9 11 5 6 1027.2 1025.3 0.4
31/01:30am 12.8 11.9 10.7 87 1.1 SSE 6 7 3 4 1027.1 1025.2 0.4
31/01:00am 12.8 11.8 10.9 88 1.0 S 7 7 4 4 1027.1 1025.2 0.4
31/12:30am 13.1 12.7 11.0 87 1.1 SE 4 6 2 3 1027.2 1025.3 0.4
31/12:00am 13.5 12.7 11.2 86 1.3 SE 6 9 3 5 1027.3 1025.4 0.4
 
Date/Time
EDT
Temp
°C
App
Temp
°C
Dew
Point
Rel
Hum
%
Delta-T
°C
Wind Press
QNH
hPa
Press
MSL
hPa
Rain
since 9 am
mm
Dir
 
Spd
km/h
Gust
km/h
Spd
kts
Gust
kts
30/11:46pm 13.4 12.6 11.1 86 1.3 SSE 6 7 3 4 1027.3 1025.4 0.4
30/11:34pm 13.5 12.2 11.4 87 1.2 S 9 13 5 7 1027.4 1025.5 0.4
30/11:30pm 13.5 12.2 11.4 87 1.2 S 9 13 5 7 1027.4 1025.5 0.4
30/11:00pm 13.2 12.0 11.6 90 0.9 SW 9 9 5 5 1027.3 1025.4 0.4
30/10:30pm 13.5 12.9 11.6 88 1.0 SW 6 7 3 4 1027.0 1025.1 0.4
30/10:00pm 14.1 13.0 11.8 86 1.3 SSE 9 11 5 6 1026.9 1025.0 0.4
30/09:30pm 14.0 13.3 11.3 84 1.5 ESE 6 13 3 7 1026.9 1025.0 0.4
30/09:00pm 14.7 13.4 11.1 79 2.0 NNE 9 11 5 6 1026.8 1024.9 0.4
30/08:30pm 15.0 15.4 11.2 78 2.1 CALM 0 6 0 3 1026.7 1024.8 0.2
30/08:00pm 15.3 15.5 10.5 73 2.6 CALM 0 6 0 3 1026.1 1024.2 0.0
30/07:30pm 16.3 14.3 10.2 67 3.3 E 11 13 6 7 1025.8 1023.9 0.0
30/07:00pm 16.9 15.4 10.5 66 3.5 E 9 13 5 7 1025.5 1023.6 0.0
30/06:30pm 17.5 15.3 9.4 59 4.4 E 11 15 6 8 1025.2 1023.3 0.0
30/06:00pm 18.4 16.2 9.2 55 5.0 ENE 11 13 6 7 1024.7 1022.8 0.0
30/05:30pm 19.1 17.0 8.4 50 5.7 ESE 9 13 5 7 1024.5 1022.6 0.0
30/05:00pm 19.6 16.4 8.3 48 6.0 NE 15 19 8 10 1024.2 1022.3 0.0
30/04:30pm 21.0 17.9 3.7 32 8.6 WSW 9 11 5 6 1023.9 1022.0 0.0
30/04:00pm 21.4 18.3 3.6 31 8.8 S 9 15 5 8 1023.9 1022.0 0.0
30/03:30pm 21.9 19.0 4.5 32 8.8 W 9 15 5 8 1024.0 1022.1 0.0
30/03:00pm 21.7 18.8 4.7 33 8.6 W 9 13 5 7 1024.0 1022.1 0.0
30/02:30pm 22.0 19.5 5.0 33 8.7 N 7 11 4 6 1024.0 1022.1 0.0
30/02:00pm 21.3 18.7 4.4 33 8.5 WSW 7 15 4 8 1024.4 1022.5 0.0
30/01:30pm 20.3 17.7 6.3 40 7.3 NW 9 13 5 7 1025.0 1023.1 0.0
30/01:00pm 19.4 17.6 7.2 45 6.4 N 6 9 3 5 1025.3 1023.4 0.0
30/12:30pm 17.9 15.8 6.7 48 5.8 NNE 7 13 4 7 1025.7 1023.8 0.0
30/12:00pm 17.1 15.2 7.7 54 4.9 NE 7 11 4 6 1025.9 1024.0 0.0
30/11:30am 15.9 14.3 8.2 60 4.0 N 6 9 3 5 1026.1 1024.2 0.0
30/11:00am 13.9 13.4 7.7 66 3.1 CALM 0 0 0 0 1026.6 1024.7 0.0
30/10:30am 12.4 12.1 8.5 77 2.0 CALM 0 0 0 0 1026.7 1024.8 0.0
30/10:00am 10.4 8.8 7.8 84 1.3 SSW 6 9 3 5 1026.7 1024.8 0.0

Other Formats:

Comma delimited format used in spreadsheet applications
http://www.bom.gov.au/fwo/IDN60801/IDN60801.95716.axf

JavaScript Object Notation format (JSON) in row-major order
http://www.bom.gov.au/fwo/IDN60801/IDN60801.95716.json